Previsão horária em Barrancabermeja

Hoje, 22 Outubro, Quinta-feira

Tempo Temperatura Precipitação Vento Pressão Humidade
00:00 +24°C° 0.2 mm 0 m/s 752 mmHg 95%
01:00 +24°C° 0.2 mm 0 m/s 752 mmHg 96%
02:00 +24°C° 1.6 mm 0 m/s 752 mmHg 97%
03:00 +23°C° 1.6 mm 0 m/s 752 mmHg 97%
04:00 +23°C° 1.6 mm 0 m/s 752 mmHg 98%
05:00 +23°C° 0.3 mm 0 m/s 752 mmHg 98%
06:00 +24°C° 0.3 mm 0 m/s 753 mmHg 98%
07:00 +24°C° 0.3 mm 0 m/s 753 mmHg 97%
08:00 +25°C° 0.5 mm 0 m/s 753 mmHg 92%
09:00 +27°C° 0.5 mm 0 m/s 753 mmHg 86%
10:00 +30°C° 0.5 mm 1 m/s 753 mmHg 80%
11:00 +31°C° 0.3 mm 1 m/s 752 mmHg 74%
12:00 +32°C° 0.3 mm 1 m/s 751 mmHg 68%
13:00 +34°C° 0.3 mm 1 m/s 750 mmHg 62%
14:00 +33°C° 0 mm 1 m/s 750 mmHg 63%
15:00 +33°C° 0 mm 1 m/s 749 mmHg 64%
16:00 +33°C° 0 mm 1 m/s 749 mmHg 65%
17:00 +31°C° 0.1 mm 1 m/s 750 mmHg 72%
18:00 +27°C° 0.1 mm 0 m/s 750 mmHg 79%
19:00 +26°C° 0.1 mm 0 m/s 751 mmHg 87%
20:00 +25°C° 1.9 mm 0 m/s 752 mmHg 89%
21:00 +27°C° 1.9 mm 1 m/s 752 mmHg 91%
22:00 +26°C° 1.9 mm 1 m/s 753 mmHg 94%
23:00 +26°C° 0.6 mm 1 m/s 753 mmHg 95%

Amanhã, 23 Outubro, Sexta-feira

Tempo Temperatura Precipitação Vento Pressão Humidade
00:00 +23°C° 0.6 mm 0 m/s 753 mmHg 96%
01:00 +23°C° 0.6 mm 0 m/s 752 mmHg 97%
02:00 +23°C° 0.2 mm 0 m/s 752 mmHg 97%
03:00 +23°C° 0.2 mm 0 m/s 752 mmHg 97%
04:00 +23°C° 0.2 mm 0 m/s 752 mmHg 97%
05:00 +23°C° 0 mm 0 m/s 752 mmHg 96%
06:00 +24°C° 0 mm 0 m/s 752 mmHg 95%
07:00 +24°C° 0 mm 0 m/s 753 mmHg 93%
08:00 +26°C° 0 mm 0 m/s 753 mmHg 84%
09:00 +30°C° 0 mm 1 m/s 753 mmHg 75%
10:00 +32°C° 0 mm 1 m/s 752 mmHg 66%
11:00 +33°C° 0 mm 1 m/s 751 mmHg 60%
12:00 +35°C° 0 mm 1 m/s 750 mmHg 54%
13:00 +37°C° 0 mm 1 m/s 749 mmHg 49%
14:00 +36°C° 0 mm 1 m/s 749 mmHg 51%
15:00 +35°C° 0 mm 1 m/s 749 mmHg 53%
16:00 +35°C° 0 mm 1 m/s 748 mmHg 55%
17:00 +32°C° 0.4 mm 1 m/s 749 mmHg 66%
18:00 +30°C° 0.4 mm 1 m/s 750 mmHg 78%
19:00 +28°C° 0.4 mm 1 m/s 750 mmHg 89%
20:00 +27°C° 2.1 mm 1 m/s 751 mmHg 91%
21:00 +26°C° 2.1 mm 1 m/s 752 mmHg 94%
22:00 +25°C° 2.1 mm 1 m/s 752 mmHg 97%
23:00 +25°C° 1.4 mm 1 m/s 752 mmHg 97%

Depois de amanhã, 24 Outubro, Sábado

Tempo Temperatura Precipitação Vento Pressão Humidade
00:00 +25°C° 1.4 mm 1 m/s 752 mmHg 98%
01:00 +25°C° 1.4 mm 1 m/s 752 mmHg 98%
02:00 +23°C° 0.8 mm 0 m/s 752 mmHg 98%
03:00 +23°C° 0.8 mm 0 m/s 752 mmHg 98%
04:00 +23°C° 0.8 mm 0 m/s 752 mmHg 98%
05:00 +23°C° 0.1 mm 0 m/s 752 mmHg 98%
06:00 +23°C° 0.1 mm 0 m/s 753 mmHg 97%
07:00 +24°C° 0.1 mm 0 m/s 753 mmHg 97%
08:00 +26°C° 0.1 mm 0 m/s 753 mmHg 86%
09:00 +30°C° 0.1 mm 1 m/s 753 mmHg 76%
10:00 +32°C° 0.1 mm 1 m/s 753 mmHg 65%
11:00 +33°C° 0.1 mm 1 m/s 752 mmHg 63%
12:00 +33°C° 0.1 mm 1 m/s 751 mmHg 60%
13:00 +32°C° 0.1 mm 0 m/s 750 mmHg 57%
14:00 +32°C° 0.1 mm 0 m/s 749 mmHg 58%
15:00 +32°C° 0.1 mm 0 m/s 749 mmHg 59%
16:00 +32°C° 0.1 mm 0 m/s 749 mmHg 59%
17:00 +30°C° 0.3 mm 0 m/s 749 mmHg 69%
18:00 +30°C° 0.3 mm 1 m/s 750 mmHg 78%
19:00 +28°C° 0.3 mm 1 m/s 751 mmHg 87%
20:00 +27°C° 2.8 mm 1 m/s 751 mmHg 91%
21:00 +27°C° 2.8 mm 1 m/s 752 mmHg 94%
22:00 +26°C° 2.8 mm 1 m/s 752 mmHg 97%
23:00 +26°C° 4.2 mm 1 m/s 752 mmHg 98%

, 25 Outubro, Domingo

Tempo Temperatura Precipitação Vento Pressão Humidade
00:00 +26°C° 4.2 mm 1 m/s 752 mmHg 98%
01:00 +25°C° 4.2 mm 1 m/s 752 mmHg 98%
02:00 +25°C° 4.7 mm 1 m/s 752 mmHg 98%
03:00 +25°C° 4.7 mm 1 m/s 752 mmHg 98%
04:00 +25°C° 4.7 mm 1 m/s 751 mmHg 98%
05:00 +24°C° 4.3 mm 1 m/s 752 mmHg 99%
06:00 +24°C° 4.3 mm 1 m/s 753 mmHg 99%
07:00 +22°C° 4.3 mm 0 m/s 754 mmHg 99%
08:00 +22°C° 1.7 mm 0 m/s 754 mmHg 98%
09:00 +23°C° 1.7 mm 0 m/s 755 mmHg 98%
10:00 +23°C° 1.7 mm 0 m/s 755 mmHg 98%
11:00 +23°C° 0.1 mm 0 m/s 754 mmHg 96%
12:00 +24°C° 0.1 mm 0 m/s 753 mmHg 93%
13:00 +24°C° 0.1 mm 0 m/s 752 mmHg 91%
14:00 +25°C° 0 mm 0 m/s 752 mmHg 86%
15:00 +26°C° 0 mm 0 m/s 751 mmHg 82%
16:00 +26°C° 0 mm 0 m/s 751 mmHg 77%
17:00 +25°C° 0 mm 0 m/s 751 mmHg 82%
18:00 +24°C° 0 mm 0 m/s 752 mmHg 87%
19:00 +23°C° 0 mm 0 m/s 752 mmHg 92%
20:00 +23°C° 0 mm 0 m/s 752 mmHg 93%
21:00 +22°C° 0 mm 0 m/s 753 mmHg 95%
22:00 +22°C° 0 mm 0 m/s 753 mmHg 96%
23:00 +22°C° 0 mm 0 m/s 753 mmHg 97%

25 Outubro, Domingo

Tempo Temperatura Precipitação Vento Pressão Humidade
00:00 +26°C° 4.2 mm 1 m/s 752 mmHg 98%
01:00 +25°C° 4.2 mm 1 m/s 752 mmHg 98%
02:00 +25°C° 4.7 mm 1 m/s 752 mmHg 98%
03:00 +25°C° 4.7 mm 1 m/s 752 mmHg 98%
04:00 +25°C° 4.7 mm 1 m/s 751 mmHg 98%
05:00 +24°C° 4.3 mm 1 m/s 752 mmHg 99%
06:00 +24°C° 4.3 mm 1 m/s 753 mmHg 99%
07:00 +22°C° 4.3 mm 0 m/s 754 mmHg 99%
08:00 +22°C° 1.7 mm 0 m/s 754 mmHg 98%
09:00 +23°C° 1.7 mm 0 m/s 755 mmHg 98%
10:00 +23°C° 1.7 mm 0 m/s 755 mmHg 98%
11:00 +23°C° 0.1 mm 0 m/s 754 mmHg 96%
12:00 +24°C° 0.1 mm 0 m/s 753 mmHg 93%
13:00 +24°C° 0.1 mm 0 m/s 752 mmHg 91%
14:00 +25°C° 0 mm 0 m/s 752 mmHg 86%
15:00 +26°C° 0 mm 0 m/s 751 mmHg 82%
16:00 +26°C° 0 mm 0 m/s 751 mmHg 77%
17:00 +25°C° 0 mm 0 m/s 751 mmHg 82%
18:00 +24°C° 0 mm 0 m/s 752 mmHg 87%
19:00 +23°C° 0 mm 0 m/s 752 mmHg 92%
20:00 +23°C° 0 mm 0 m/s 752 mmHg 93%
21:00 +22°C° 0 mm 0 m/s 753 mmHg 95%
22:00 +22°C° 0 mm 0 m/s 753 mmHg 96%
23:00 +22°C° 0 mm 0 m/s 753 mmHg 97%

26 Outubro, Segunda-feira

Tempo Temperatura Precipitação Vento Pressão Humidade
00:00 +22°C° 0 mm 0 m/s 753 mmHg 97%
01:00 +22°C° 0 mm 0 m/s 752 mmHg 98%
02:00 +21°C° 0 mm 0 m/s 752 mmHg 98%
03:00 +21°C° 0 mm 0 m/s 752 mmHg 98%
04:00 +21°C° 0 mm 0 m/s 752 mmHg 98%
05:00 +22°C° 0 mm 0 m/s 753 mmHg 96%
06:00 +22°C° 0 mm 0 m/s 753 mmHg 94%
07:00 +23°C° 0 mm 0 m/s 753 mmHg 91%
08:00 +26°C° 0 mm 0 m/s 753 mmHg 81%
09:00 +28°C° 0 mm 0 m/s 753 mmHg 70%
10:00 +31°C° 0 mm 0 m/s 753 mmHg 60%
11:00 +32°C° 0 mm 0 m/s 752 mmHg 55%
12:00 +33°C° 0 mm 0 m/s 751 mmHg 51%
13:00 +34°C° 0 mm 0 m/s 750 mmHg 47%
14:00 +34°C° 0 mm 0 m/s 749 mmHg 50%
15:00 +33°C° 0 mm 0 m/s 749 mmHg 52%
16:00 +34°C° 0 mm 1 m/s 749 mmHg 55%
17:00 +32°C° 0 mm 1 m/s 749 mmHg 64%
18:00 +30°C° 0 mm 1 m/s 750 mmHg 73%
19:00 +28°C° 0 mm 1 m/s 751 mmHg 82%
20:00 +25°C° 0 mm 0 m/s 751 mmHg 84%
21:00 +25°C° 0 mm 0 m/s 751 mmHg 85%
22:00 +25°C° 0 mm 0 m/s 752 mmHg 86%
23:00 +24°C° 0.7 mm 0 m/s 752 mmHg 89%

27 Outubro, Terça-feira

Tempo Temperatura Precipitação Vento Pressão Humidade
00:00 +24°C° 0.7 mm 0 m/s 751 mmHg 92%
01:00 +23°C° 0.7 mm 0 m/s 751 mmHg 94%
02:00 +23°C° 1.8 mm 0 m/s 751 mmHg 96%
03:00 +23°C° 1.8 mm 0 m/s 751 mmHg 97%
04:00 +22°C° 1.8 mm 0 m/s 751 mmHg 98%
05:00 +23°C° 1.1 mm 0 m/s 751 mmHg 98%
06:00 +23°C° 1.1 mm 0 m/s 752 mmHg 98%
07:00 +23°C° 1.1 mm 0 m/s 752 mmHg 98%
08:00 +25°C° 0.3 mm 0 m/s 752 mmHg 90%
09:00 +27°C° 0.3 mm 0 m/s 752 mmHg 83%
10:00 +29°C° 0.3 mm 0 m/s 752 mmHg 75%
11:00 +30°C° 0.5 mm 0 m/s 751 mmHg 69%
12:00 +31°C° 0.5 mm 0 m/s 750 mmHg 64%
13:00 +33°C° 0.5 mm 0 m/s 749 mmHg 58%
14:00 +32°C° 0.3 mm 0 m/s 748 mmHg 63%
15:00 +31°C° 0.3 mm 0 m/s 748 mmHg 67%
16:00 +30°C° 0.3 mm 0 m/s 747 mmHg 72%
17:00 +28°C° 0.7 mm 0 m/s 748 mmHg 79%
18:00 +27°C° 0.7 mm 0 m/s 749 mmHg 86%
19:00 +25°C° 0.7 mm 0 m/s 750 mmHg 93%
20:00 +25°C° 2.6 mm 0 m/s 750 mmHg 94%
21:00 +24°C° 2.6 mm 0 m/s 750 mmHg 96%
22:00 +24°C° 2.6 mm 0 m/s 751 mmHg 97%
23:00 +24°C° 2.2 mm 0 m/s 751 mmHg 97%
Mostrar mais